Погода в Гнилуше

Россия / Орловская область     52°30′29″N   36°06′37″E
темп.,
°C
ветер,
м/с
пор.,
м/с
влажн.,
%
обл.,
%
осадки,
мм/ч
давл.,
гПа
погр.,
м
5 декабря, вс
вс500:00−4ююз25947 0.0 1015124
03:00−4ююз249499 0.0 1015113
06:00−3ю2491100 0.0 1015143
09:00−3ю2491100 0.0 1016139
12:00−2ю348388 0.0 1016242
15:00−2ююв228815 0.0 101637
18:00−4ююв2391100 0.0 101742
21:00−3ююв2487100 0.0 101880
6 декабря, пн
пн600:00−3ююв258492 0.0 1019100
03:00−3ююв2583100 0.0 1019108
06:00−3юв3681100 0.0 1018155
09:00−3юв4977100 0.0 1019231
12:00−2юв4975100 0.0 1019376
15:00−1юв3780100 0.0 1019299
18:00−2юв51085100 0.0 1018286
21:00−2юв51296100 0.3 1018391
7 декабря, вт
вт700:000юв61397100 2.3 1016385
03:00+1юв61497100 5.9 1014475
06:00+1ююв61398100 0.9 1012406
09:00+2ююв51199100 1.1 1012275
12:00+2ююв511100100 0.3 1011236
15:00+3ююв411100100 1.2 1010239
18:00+5ю616100100 0.1 1009363
21:00+5ю61598100 2.1 1009348
8 декабря, ср
ср800:00+4ю61396100 4.3 1009272
03:00+3ююв41097100 5.9 1010201
06:00+3ююв359595 1.1 101076
09:00+2ююв3392100 1.1 101139
12:00+3вюв2394100 0.0 101175
15:00+2в3495100 0.0 101096
18:00+1в3797100 0.0 1011141
21:00+1в3897100 0.0 1011180
9 декабря, чт
чт900:00+1в3697100 0.0 1011147
03:00+1в479797 0.0 1011183
06:00+1в3697100 0.0 1011133
09:00+2в3696100 0.0 1011123
12:00+3вюв3895100 0.0 1011231
15:00+4юв3698100 0.0 1011177
18:00+4ююв2496100 0.0 101289
21:00+4ю229799 0.0 101339